Starlink 31908

operational
NORAD ID: 59901 Int'l Des: 2024-100 Owner: SPXS Country: US Constellation: starlink
LEOCIRCULAR

Starlink 31908について

説明を読み込み中...

リアルタイム位置

3D地球を読み込み中...

次回通過

高度履歴

Altitude vs Time

uPlot chart will show altitude changes over time

軌道要素

1 59901U 24100S 25353.03756677 .00000338 00000-0 21818-4 0 9998
2 59901 43.0011 213.8253 0001241 270.1139 89.9571 15.27576116 88893
Epoch: Dec 19, 2025 • Age: 16 hours

現在のステータス

高度 484.2 km
速度 7.63 km/s
衛星直下点 29.65°N, 6.41°E
打ち上げ日 May 28, 2024
運用期間 1.5 years
タイプ internet

技術仕様

分類 Payload
質量 730.00 kg
乾燥質量 700.00 kg
総質量 730.00 kg
長さ 0.30 m
直径 4.10 m
スパン 29.00 m
形状 Box + pan
製造者 SPXS
バスタイプ Starlink V2M
フェーズステータス In Orbit
所有者/国 SPXS/US

大規模コンステレーション

Loading constellations...